Location: Unspecified
(0.0000°N, 0.0000°E)
Time: 21:03:21
(UTC+00:00)

Altair - All Passes

Search period start: 23 November 2014 00:00
Search period end: 03 December 2014 00:00
Orbit: 1501 x 1683 km, 47.2° (Epoch: 23 November)

Date Brightness Start Highest point End Pass type
(mag) Time Alt. Az. Time Alt. Az. Time Alt. Az.
23 Nov - 03:11:26 10° NNW 03:20:10 35° NE 03:29:02 10° ESE visible
23 Nov - 05:15:13 10° NW 05:24:51 53° SW 05:34:40 10° SSE visible
23 Nov - 14:02:09 10° SSE 14:05:17 12° SE 14:08:23 10° ESE daylight
23 Nov - 16:01:08 10° SSW 16:10:27 71° SE 16:19:32 10° NE daylight
23 Nov - 18:08:18 10° W 18:15:00 22° NW 18:21:42 10° N visible
24 Nov - 02:46:36 10° N 02:54:58 31° NE 03:03:29 10° ESE visible
24 Nov - 04:49:55 10° NW 04:59:40 59° SW 05:09:38 10° SSE visible
24 Nov - 15:36:04 10° SSW 15:45:20 63° SE 15:54:20 10° NE daylight
24 Nov - 17:42:38 10° W 17:49:50 26° NW 17:57:01 10° N daylight
25 Nov - 02:21:49 10° N 02:29:46 28° NE 02:37:51 10° ESE visible
25 Nov - 04:24:39 10° NW 04:34:30 66° SW 04:44:34 10° SSE visible
25 Nov - 06:36:45 10° WSW 06:39:58 12° SW 06:43:11 10° SSW daylight
25 Nov - 15:11:02 10° SSW 15:20:12 57° SE 15:29:06 10° NE daylight
25 Nov - 17:17:03 10° WSW 17:24:41 29° NW 17:32:16 10° N daylight
26 Nov - 01:57:06 10° N 02:04:34 24° NE 02:12:09 10° E visible
26 Nov - 03:59:26 10° NW 04:09:19 73° SW 04:19:28 10° SSE visible
26 Nov - 06:10:04 10° WSW 06:14:39 14° SW 06:19:17 10° SSW daylight
26 Nov - 14:46:02 10° SSW 14:55:05 50° SE 15:03:51 10° ENE daylight
26 Nov - 16:51:31 10° WSW 16:59:32 33° NW 17:07:28 10° NNE daylight
27 Nov - 01:32:27 10° N 01:39:21 21° NE 01:46:21 10° E visible
27 Nov - 03:34:15 10° NW 03:44:09 81° SW 03:54:20 10° SE visible
27 Nov - 05:43:48 10° W 05:49:22 16° SW 05:54:59 10° S daylight
27 Nov - 14:21:03 10° SSW 14:29:57 45° SE 14:38:32 10° ENE daylight
27 Nov - 16:26:03 10° WSW 16:34:24 37° NW 16:42:38 10° NNE daylight
28 Nov - 01:07:53 10° N 01:14:07 19° NE 01:20:26 10° E visible
28 Nov - 03:09:05 10° NW 03:18:59 89° SW 03:29:11 10° SE visible
28 Nov - 05:17:45 10° W 05:24:05 18° SW 05:30:30 10° S visible
28 Nov - 13:56:06 10° SSW 14:04:48 40° SE 14:13:12 10° ENE daylight
28 Nov - 16:00:38 10° WSW 16:09:16 42° NW 16:17:45 10° NNE daylight
29 Nov - 00:43:28 10° NNE 00:48:53 16° NE 00:54:21 10° E visible
29 Nov - 02:43:58 10° NW 02:53:50 83° NE 03:03:59 10° SE visible
29 Nov - 04:51:52 10° W 04:58:49 21° SW 05:05:54 10° S visible
29 Nov - 13:31:12 10° SSW 13:39:38 35° SE 13:47:48 10° ENE daylight
29 Nov - 15:35:16 10° WSW 15:44:09 48° NW 15:52:50 10° NNE daylight
30 Nov - 00:19:15 10° NNE 00:23:37 14° NE 00:28:02 10° ENE visible
30 Nov - 02:18:53 10° NNW 02:28:40 75° NE 02:38:46 10° SE visible
30 Nov - 04:26:06 10° W 04:33:34 24° SW 04:41:12 10° S visible
30 Nov - 13:06:19 10° S 13:14:28 31° SE 13:22:21 10° ENE daylight
30 Nov - 15:09:56 10° SW 15:19:02 54° NW 15:27:53 10° NNE daylight
30 Nov - 23:55:29 10° NNE 23:58:21 12° NE 00:01:14 10° ENE night (unlit)
01 Dec - 01:53:50 10° NNW 02:03:31 68° NE 02:13:31 10° SE visible
01 Dec - 04:00:26 10° W 04:08:20 27° SW 04:16:26 10° S visible
01 Dec - 12:41:29 10° S 12:49:18 28° SE 12:56:50 10° ENE daylight
01 Dec - 14:44:38 10° SW 14:53:54 61° NW 15:02:55 10° NNE daylight
02 Dec - 01:28:49 10° NNW 01:38:21 61° NE 01:48:13 10° SE visible
02 Dec - 03:34:51 10° WNW 03:43:07 30° SW 03:51:36 10° S visible
02 Dec - 12:16:42 10° S 12:24:06 25° SE 12:31:16 10° E daylight
02 Dec - 14:19:23 10° SW 14:28:48 68° NW 14:37:55 10° NNE daylight
02 Dec - 16:31:58 10° WNW 16:33:48 11° NW 16:35:39 10° NNW daylight
